Regional Weather Roundup
Issued by NWS

Home | Current Version | Previous Version | Text Only | Print | Product List | Glossary Off
Versions: 1 2 3 4 5 6 7 8 9 10 11 12 13 14 15 16 17 18 19 20 21 22 23 24 25 26 27 28 29 30 31 32 33 34 35 36 37 38 39 40 41 42 43 44 45 46 47 48 49 50

683
ASUS45 KCYS 211310
RWRWY

WYOMING REGIONAL WEATHER ROUNDUP
NATIONAL WEATHER SERVICE CHEYENNE WY
700 AM MDT FRI JUL 21 2017

NOTE:  "FAIR" INDICATES FEW OR NO CLOUDS BELOW 12,000 FEET
WITH NO SIGNIFICANT WEATHER AND/OR OBSTRUCTIONS TO VISIBILITY.

WYZ001-211400-
YELLOWSTONE NATIONAL PARK

CITY           SKY/WX    TMP DP  RH WIND       PRES   REMARKS
LK YELLOWSTONE   N/A     39  38  96 CALM      30.32R
W YELLOWSTONE  NOT AVBL

$$
WYZ002>013-054>058-071-098>099-211400-
NORTHERN WYOMING

CITY           SKY/WX    TMP DP  RH WIND       PRES   REMARKS
JACKSON        CLEAR     46  46 100 CALM      30.24R
CODY           FAIR      60  47  61 CALM      30.12R
GREYBULL       FAIR      59  57  93 CALM      30.02R
WORLAND        FAIR      57  57 100 S6        30.03R
SHERIDAN       FAIR      64  53  67 W8        30.02R
BUFFALO        FAIR      69  47  45 NW20      30.06R
GILLETTE       FAIR      70  55  59 W15       29.98R
HULETT         FAIR      70  59  68 SW7       29.97R
NEWCASTLE      FAIR      64  55  72 N5        29.98R

$$
WYZ014>020-022>026-101>103-211400-
CENTRAL WYOMING

CITY           SKY/WX    TMP DP  RH WIND       PRES   REMARKS
BIG PINEY      MOCLDY    53  53 100 CALM      30.28S
PINEDALE       FAIR      54  54 100 N7        30.29R
DUBOIS         FAIR      48  37  66 W13       30.26R
LANDER         MOCLDY    59  56  89 SE10      30.14S
RIVERTON       FAIR      62  57  83 SW9       30.13R
CASPER         FAIR      67  52  58 SW8       30.10R
DOUGLAS        FAIR      68  54  60 NW8       30.06R

$$
WYZ021-027>030-104>119-211400-
SOUTHERN WYOMING

CITY           SKY/WX    TMP DP  RH WIND       PRES   REMARKS
EVANSTON       FAIR      60  51  72 N5        30.28R
KEMMERER         N/A     57  50  77 N7        30.28S
FORT BRIDGER   FAIR      61  54  77 W7        30.28R
ROCK SPRINGS   FAIR      60  52  74 N7        30.24R
RAWLINS        FAIR      61  54  77 NW3       30.25R
SARATOGA       FAIR      59  50  72 CALM      30.27R
LARAMIE        FAIR      57  52  83 E7        30.25R
CHEYENNE       FAIR      70  51  51 W7G16     30.15R
TORRINGTON     FAIR      66  62  87 NE8       29.99R
PINE BLUFFS    FAIR      61  55  82 SW6       30.09R

$$




USA.gov is the U.S. government's official web portal to all federal, state and local government web resources and services.